This is the latest recevied weather packets stored in our database for station/object K6GMW. If no packets are shown the sender has not sent any weather packets the latest 10 day(s).
| Time | Temp. | Humidity | Pressure | Rain* | Wind** | Luminosity | Snow |
|---|---|---|---|---|---|---|---|
| 1777498586 | 17.78° C | 98% | 1012.4 hPa | 0 mm | - | 94 W/m² | - |
| 1777498281 | 17.78° C | 98% | 1013 hPa | 0.51 mm | - | 108 W/m² | - |
| 1777497981 | 17.78° C | 98% | 1012.8 hPa | 1.78 mm | - | 119 W/m² | - |
| 1777497676 | 17.78° C | 98% | 1012.6 hPa | 1.78 mm | - | 126 W/m² | - |
| 1777497373 | 17.78° C | 98% | 1013.6 hPa | 0.51 mm | - | 69 W/m² | - |
| 1777497068 | 17.78° C | 98% | 1013.9 hPa | 0.51 mm | - | 61 W/m² | - |
| 1777496765 | 17.78° C | 98% | 1013.5 hPa | 0.51 mm | - | 53 W/m² | - |
| 1777496462 | 17.78° C | 98% | 1012.7 hPa | 3.56 mm | - | 39 W/m² | - |
| 1777496159 | 17.22° C | 98% | 1013.1 hPa | 9.65 mm | - | 18 W/m² | - |
| 1777495855 | 17.22° C | 98% | 1013.4 hPa | 25.91 mm | - | 16 W/m² | - |
| 1777495550 | 17.22° C | 97% | 1014.8 hPa | 43.69 mm | - | 12 W/m² | - |
| 1777495246 | 17.78° C | 96% | 1016 hPa | 22.1 mm | - | 8 W/m² | - |
| 1777494944 | 17.78° C | 96% | 1015.9 hPa | 0.51 mm | - | 1 W/m² | - |
| 1777494641 | 17.78° C | 95% | 1014.1 hPa | 1.78 mm | - | 3 W/m² | - |
| 1777494339 | 17.78° C | 95% | 1013.8 hPa | 1.27 mm | - | 15 W/m² | - |
| 1777494035 | 17.78° C | 95% | 1013.5 hPa | 0 mm | - | 19 W/m² | - |
| 1777493733 | 17.78° C | 95% | 1013.3 hPa | 0 mm | - | 25 W/m² | - |
| 1777493431 | 18.33° C | 95% | 1013.7 hPa | 0 mm | - | 23 W/m² | - |
| 1777493126 | 18.33° C | 95% | 1014 hPa | 0 mm | - | 10 W/m² | - |
| 1777492824 | 18.33° C | 95% | 1014 hPa | 0 mm | - | 18 W/m² | - |
| 1777492520 | 18.33° C | 95% | 1014.2 hPa | 0 mm | - | 28 W/m² | - |
| 1777492216 | 18.33° C | 95% | 1013.9 hPa | 0 mm | - | 68 W/m² | - |
| 1777491913 | 18.33° C | 95% | 1013.7 hPa | 0 mm | - | 76 W/m² | - |
| 1777491609 | 18.33° C | 94% | 1013.4 hPa | 0 mm | - | 110 W/m² | - |
| 1777491307 | 18.33° C | 94% | 1014 hPa | 0 mm | - | 165 W/m² | - |
* Rain latest hour (hover to see other rain measurements)
** Current wind speed in m/s (hover to see current wind gust speed)